When you browse on this site, cookies collect data to enhance your experience and personalize the content and advertising you see.
Visit our Privacy Policy to learn more. By continuing to use the site, you agree to this use of cookies and data.
  • In Portugal
  • List of Countries
  • For 7 days
  • Water Temperature
  • Weather Map
  • Weather Widgets
  • user-avatar
    Login

    Hourly Weather Saidpur

    Today, 29 May, Friday

    Time Temperature Precipitation Wind Pressure Humidity
    00:00 +28°C° 0 mm 2 mps 752 mmHg 73%
    01:00 +28°C° 0.5 mm 2 mps 752 mmHg 76%
    02:00 +28°C° 0.5 mm 2 mps 751 mmHg 79%
    03:00 +27°C° 0.5 mm 2 mps 751 mmHg 81%
    04:00 +27°C° 0.1 mm 3 mps 751 mmHg 81%
    05:00 +27°C° 0.1 mm 3 mps 751 mmHg 82%
    06:00 +27°C° 0.1 mm 3 mps 751 mmHg 82%
    07:00 +28°C° 0.1 mm 3 mps 752 mmHg 79%
    08:00 +29°C° 0.1 mm 3 mps 752 mmHg 76%
    09:00 +29°C° 0.1 mm 3 mps 753 mmHg 73%
    10:00 +31°C° 0 mm 3 mps 752 mmHg 68%
    11:00 +34°C° 0 mm 3 mps 752 mmHg 63%
    12:00 +36°C° 0 mm 3 mps 751 mmHg 57%
    13:00 +36°C° 0.1 mm 3 mps 750 mmHg 54%
    14:00 +37°C° 0.1 mm 3 mps 749 mmHg 51%
    15:00 +38°C° 0.1 mm 3 mps 748 mmHg 47%
    16:00 +37°C° 0 mm 4 mps 748 mmHg 50%
    17:00 +36°C° 0 mm 4 mps 748 mmHg 54%
    18:00 +36°C° 0 mm 5 mps 748 mmHg 57%
    19:00 +33°C° 6.4 mm 5 mps 749 mmHg 65%
    20:00 +30°C° 6.4 mm 5 mps 749 mmHg 74%
    21:00 +27°C° 6.4 mm 5 mps 750 mmHg 82%
    22:00 +27°C° 0.1 mm 4 mps 751 mmHg 83%
    23:00 +27°C° 0.1 mm 4 mps 751 mmHg 84%

    Tomorrow, 30 May, Saturday

    Time Temperature Precipitation Wind Pressure Humidity
    00:00 +27°C° 0.1 mm 3 mps 751 mmHg 85%
    01:00 +27°C° 0 mm 3 mps 751 mmHg 85%
    02:00 +27°C° 0 mm 3 mps 751 mmHg 85%
    03:00 +26°C° 0 mm 3 mps 751 mmHg 85%
    04:00 +26°C° 0 mm 3 mps 752 mmHg 86%
    05:00 +26°C° 0 mm 4 mps 752 mmHg 87%
    06:00 +26°C° 0 mm 4 mps 752 mmHg 88%
    07:00 +27°C° 0 mm 4 mps 753 mmHg 83%
    08:00 +29°C° 0 mm 5 mps 753 mmHg 78%
    09:00 +30°C° 0 mm 5 mps 753 mmHg 73%
    10:00 +32°C° 0.1 mm 4 mps 753 mmHg 68%
    11:00 +33°C° 0.1 mm 4 mps 753 mmHg 63%
    12:00 +34°C° 0.1 mm 3 mps 753 mmHg 58%
    13:00 +34°C° 0.1 mm 3 mps 753 mmHg 58%
    14:00 +34°C° 0.1 mm 3 mps 752 mmHg 58%
    15:00 +35°C° 0.1 mm 4 mps 751 mmHg 58%
    16:00 +34°C° 0.1 mm 3 mps 751 mmHg 60%
    17:00 +34°C° 0.1 mm 3 mps 750 mmHg 62%
    18:00 +33°C° 0.1 mm 3 mps 750 mmHg 65%
    19:00 +31°C° 0.7 mm 3 mps 750 mmHg 69%
    20:00 +30°C° 0.7 mm 3 mps 751 mmHg 74%
    21:00 +29°C° 0.7 mm 2 mps 751 mmHg 79%
    22:00 +29°C° 1.4 mm 3 mps 752 mmHg 82%
    23:00 +28°C° 1.4 mm 4 mps 752 mmHg 86%

    Day after tomorrow, 31 May, Sunday

    Time Temperature Precipitation Wind Pressure Humidity
    00:00 +27°C° 1.4 mm 4 mps 752 mmHg 89%
    01:00 +27°C° 0.2 mm 4 mps 752 mmHg 90%
    02:00 +27°C° 0.2 mm 4 mps 752 mmHg 90%
    03:00 +27°C° 0.2 mm 4 mps 751 mmHg 90%
    04:00 +27°C° 0.8 mm 4 mps 752 mmHg 90%
    05:00 +27°C° 0.8 mm 4 mps 752 mmHg 89%
    06:00 +27°C° 0.8 mm 4 mps 752 mmHg 88%
    07:00 +28°C° 0.5 mm 4 mps 753 mmHg 86%
    08:00 +28°C° 0.5 mm 4 mps 753 mmHg 83%
    09:00 +29°C° 0.5 mm 4 mps 754 mmHg 81%
    10:00 +32°C° 0 mm 4 mps 753 mmHg 77%
    11:00 +33°C° 0 mm 4 mps 753 mmHg 73%
    12:00 +34°C° 0 mm 4 mps 753 mmHg 70%
    13:00 +34°C° 0 mm 3 mps 752 mmHg 68%
    14:00 +35°C° 0 mm 3 mps 751 mmHg 67%
    15:00 +35°C° 0 mm 3 mps 751 mmHg 65%
    16:00 +35°C° 0 mm 3 mps 750 mmHg 66%
    17:00 +35°C° 0 mm 3 mps 749 mmHg 66%
    18:00 +35°C° 0 mm 3 mps 749 mmHg 67%
    19:00 +34°C° 1.5 mm 4 mps 749 mmHg 72%
    20:00 +32°C° 1.5 mm 4 mps 750 mmHg 77%
    21:00 +30°C° 1.5 mm 5 mps 750 mmHg 82%
    22:00 +29°C° 0.8 mm 5 mps 751 mmHg 85%
    23:00 +29°C° 0.8 mm 4 mps 751 mmHg 87%

    1 June, Monday

    Time Temperature Precipitation Wind Pressure Humidity
    00:00 +28°C° 0.8 mm 4 mps 751 mmHg 89%
    01:00 +28°C° 1.2 mm 4 mps 751 mmHg 90%
    02:00 +28°C° 1.2 mm 4 mps 750 mmHg 91%
    03:00 +27°C° 1.2 mm 4 mps 750 mmHg 92%
    04:00 +27°C° 0.8 mm 3 mps 750 mmHg 92%
    05:00 +27°C° 0.8 mm 3 mps 750 mmHg 92%
    06:00 +27°C° 0.8 mm 3 mps 751 mmHg 92%
    07:00 +28°C° 0.2 mm 3 mps 751 mmHg 84%
    08:00 +30°C° 0.2 mm 3 mps 752 mmHg 77%
    09:00 +32°C° 0.2 mm 2 mps 752 mmHg 69%
    10:00 +34°C° 0 mm 2 mps 752 mmHg 63%
    11:00 +36°C° 0 mm 2 mps 751 mmHg 57%
    12:00 +37°C° 0 mm 2 mps 751 mmHg 50%
    13:00 +38°C° 0.2 mm 2 mps 750 mmHg 49%
    14:00 +39°C° 0.2 mm 2 mps 750 mmHg 47%
    15:00 +39°C° 0.2 mm 2 mps 749 mmHg 46%
    16:00 +38°C° 0.5 mm 3 mps 749 mmHg 52%
    17:00 +37°C° 0.5 mm 3 mps 748 mmHg 58%
    18:00 +36°C° 0.5 mm 4 mps 747 mmHg 64%
    19:00 +34°C° 0.2 mm 4 mps 748 mmHg 72%
    20:00 +33°C° 0.2 mm 5 mps 748 mmHg 80%
    21:00 +30°C° 0.2 mm 5 mps 749 mmHg 88%
    22:00 +30°C° 0.2 mm 5 mps 749 mmHg 88%
    23:00 +29°C° 0.2 mm 5 mps 749 mmHg 89%

    2 June, Tuesday

    Time Temperature Precipitation Wind Pressure Humidity
    00:00 +29°C° 0.2 mm 5 mps 749 mmHg 89%
    01:00 +29°C° 0.6 mm 4 mps 749 mmHg 89%
    02:00 +29°C° 0.6 mm 3 mps 748 mmHg 90%
    03:00 +30°C° 0.6 mm 3 mps 748 mmHg 90%
    04:00 +30°C° 0.6 mm 2 mps 748 mmHg 90%
    05:00 +30°C° 0.6 mm 2 mps 748 mmHg 89%
    06:00 +30°C° 0.6 mm 2 mps 749 mmHg 89%
    07:00 +31°C° 0 mm 2 mps 749 mmHg 85%
    08:00 +33°C° 0 mm 3 mps 749 mmHg 80%
    09:00 +34°C° 0 mm 3 mps 749 mmHg 76%
    10:00 +35°C° 0 mm 3 mps 749 mmHg 72%
    11:00 +35°C° 0 mm 3 mps 749 mmHg 69%
    12:00 +36°C° 0 mm 2 mps 749 mmHg 66%
    13:00 +38°C° 0 mm 2 mps 748 mmHg 59%
    14:00 +39°C° 0 mm 2 mps 747 mmHg 52%
    15:00 +41°C° 0 mm 2 mps 746 mmHg 46%
    16:00 +39°C° 0.1 mm 3 mps 746 mmHg 54%
    17:00 +38°C° 0.1 mm 4 mps 746 mmHg 62%
    18:00 +36°C° 0.1 mm 5 mps 745 mmHg 70%
    19:00 +35°C° 0 mm 5 mps 746 mmHg 74%
    20:00 +33°C° 0 mm 5 mps 746 mmHg 78%
    21:00 +32°C° 0 mm 6 mps 747 mmHg 82%
    22:00 +30°C° 0 mm 5 mps 747 mmHg 83%
    23:00 +29°C° 0 mm 4 mps 747 mmHg 85%

    3 June, Wednesday

    Time Temperature Precipitation Wind Pressure Humidity
    00:00 +29°C° 0 mm 4 mps 747 mmHg 86%
    01:00 +29°C° 0 mm 3 mps 747 mmHg 86%
    02:00 +29°C° 0 mm 3 mps 746 mmHg 86%
    03:00 +30°C° 0 mm 3 mps 746 mmHg 86%
    04:00 +30°C° 0 mm 3 mps 747 mmHg 86%
    05:00 +30°C° 0 mm 3 mps 747 mmHg 86%
    06:00 +30°C° 0 mm 4 mps 747 mmHg 86%
    07:00 +32°C° 0 mm 4 mps 748 mmHg 82%
    08:00 +33°C° 0 mm 4 mps 748 mmHg 77%
    09:00 +34°C° 0 mm 4 mps 748 mmHg 73%
    10:00 +36°C° 0 mm 3 mps 748 mmHg 67%
    11:00 +37°C° 0 mm 3 mps 748 mmHg 60%
    12:00 +39°C° 0 mm 2 mps 748 mmHg 54%
    13:00 +39°C° 0 mm 3 mps 747 mmHg 51%
    14:00 +40°C° 0 mm 3 mps 747 mmHg 48%
    15:00 +42°C° 0 mm 4 mps 746 mmHg 45%
    16:00 +41°C° 0 mm 4 mps 746 mmHg 51%
    17:00 +40°C° 0 mm 4 mps 745 mmHg 57%
    18:00 +37°C° 0 mm 4 mps 745 mmHg 64%
    19:00 +36°C° 0 mm 4 mps 745 mmHg 68%
    20:00 +35°C° 0 mm 4 mps 746 mmHg 73%
    21:00 +34°C° 0 mm 3 mps 746 mmHg 78%
    22:00 +34°C° 0 mm 3 mps 746 mmHg 80%
    23:00 +33°C° 0 mm 3 mps 747 mmHg 83%
    Show more